TimeEDT,TemperatureF,Dew PointF,Humidity,Sea Level PressureIn,VisibilityMPH,Wind Direction,Wind SpeedMPH,Gust SpeedMPH,PrecipitationIn,Events,Conditions,WindDirDegrees,DateUTC
12:53 AM,46.9,43.0,86,30.42,10.0,South,3.5,-,N/A,,Clear,190,2011-10-08 04:53:00
1:53 AM,51.1,45.0,80,30.42,10.0,SSW,4.6,-,N/A,,Clear,210,2011-10-08 05:53:00
2:53 AM,48.9,45.0,86,30.40,10.0,SSW,4.6,-,N/A,,Clear,200,2011-10-08 06:53:00
3:53 AM,48.0,46.0,93,30.40,10.0,SW,5.8,-,N/A,,Clear,230,2011-10-08 07:53:00
4:53 AM,48.9,45.0,86,30.40,10.0,SSW,4.6,-,N/A,,Clear,210,2011-10-08 08:53:00
5:53 AM,48.9,44.1,83,30.40,10.0,SSW,4.6,-,N/A,,Clear,210,2011-10-08 09:53:00
6:53 AM,46.9,43.0,86,30.41,10.0,Calm,Calm,-,N/A,,Clear,0,2011-10-08 10:53:00
7:53 AM,54.0,46.9,77,30.43,10.0,Calm,Calm,-,N/A,,Clear,0,2011-10-08 11:53:00
8:53 AM,60.1,46.9,62,30.43,10.0,West,4.6,-,N/A,,Clear,260,2011-10-08 12:53:00
9:53 AM,64.9,48.9,56,30.43,10.0,Calm,Calm,-,N/A,,Clear,0,2011-10-08 13:53:00
10:53 AM,69.1,48.9,49,30.42,10.0,WNW,5.8,-,N/A,,Clear,290,2011-10-08 14:53:00
12:53 PM,75.0,51.1,43,30.39,10.0,WNW,6.9,-,N/A,,Clear,300,2011-10-08 16:53:00
1:53 PM,75.2,51.8,44,30.37,10.0,West,6.9,-,N/A,,Clear,260,2011-10-08 17:53:00
2:53 PM,78.1,53.1,42,30.35,10.0,West,4.6,-,N/A,,Clear,280,2011-10-08 18:53:00
3:53 PM,78.1,54.0,43,30.34,10.0,WNW,5.8,-,N/A,,Clear,290,2011-10-08 19:53:00
4:53 PM,77.0,54.0,45,30.34,10.0,WSW,5.8,-,N/A,,Clear,250,2011-10-08 20:53:00
5:53 PM,71.1,55.9,59,30.34,10.0,WSW,3.5,-,N/A,,Clear,240,2011-10-08 21:53:00
6:53 PM,61.0,57.0,87,30.35,10.0,Calm,Calm,-,N/A,,Clear,0,2011-10-08 22:53:00
7:53 PM,59.0,55.9,90,30.35,9.0,Calm,Calm,-,N/A,,Clear,0,2011-10-08 23:53:00
8:53 PM,57.9,55.9,93,30.35,10.0,SSW,4.6,-,N/A,,Clear,210,2011-10-09 00:53:00
9:53 PM,57.0,55.0,93,30.34,10.0,SSW,4.6,-,N/A,,Clear,210,2011-10-09 01:53:00
10:53 PM,55.9,53.1,90,30.34,10.0,SW,4.6,-,N/A,,Clear,220,2011-10-09 02:53:00
11:53 PM,55.0,52.0,89,30.33,10.0,Calm,Calm,-,N/A,,Clear,0,2011-10-09 03:53:00